アサシン彗星

C/2017 O1 ( ASASSN )

English version
Home page
Updated on November 23, 2017

---------------------------------------------------------------------

・ プロフィール

発見日 2017年7月19日
発見光度 15.3等
発見者 All-Sky Automated Survey for Supernovae (ASASSN)

・ 写真集

・ 軌道要素

Epoch 2017 Oct. 14.0 TT = JDT 2458040.5
T 2017 Oct. 14.78540 TT                                 MPCW
q   1.4986888            (2000.0)            P               Q
z  +0.0023774      Peri.   20.90803     +0.72168183     -0.63352065
 +/-0.0000025      Node    25.80956     +0.50849267     +0.21171963
e   0.9964371      Incl.   39.84848     +0.46969196     +0.74419512
From 1975 observations 2017 July 19-Nov. 2, mean residual 0".4.

・ 星図

・ 光度変化

        m1 = 7.0 + 5 logΔ + 10.0 log r(t + 45)

---------------------------------------------------------------------

軌道要素はM.P.E.C. 2017-V13に掲載されたものです。
星図はステラナビゲータ Ver.10 (アストロアーツ) で作成したものです。
光度グラフはComet for Windowsで作成したものです。

---------------------------------------------------------------------

Copyright(C) Seiichi Yoshida (comet@aerith.net). All rights reserved.